When you browse on this site, cookies collect data to enhance your experience and personalize the content and advertising you see.
Visit our Privacy Policy to learn more. By continuing to use the site, you agree to this use of cookies and data.
  • în România
  • Lista ţărilor
  • Pe 7 zile
  • Temperatura apei
  • Hartă satelitară
  • Meteo pe hartă
  • Widget-uri
  • user-avatar
    Intrare

    Meteo pe oră la Darłowo

    Astăzi, 10 Decembrie, Luni

    Timp Temperatura Precipitaţii Vânt Presiune Umiditate
    00:00 +4°C° 0.3 mm 8 m/s 744 mmHg 86%
    01:00 +3°C° 0.3 mm 9 m/s 745 mmHg 84%
    02:00 +3°C° 0.1 mm 9 m/s 745 mmHg 80%
    03:00 +2°C° 0.1 mm 8 m/s 746 mmHg 77%
    04:00 +2°C° 0.1 mm 8 m/s 746 mmHg 73%
    05:00 +2°C° 0 mm 8 m/s 747 mmHg 75%
    06:00 +2°C° 0 mm 8 m/s 747 mmHg 76%
    07:00 +1°C° 0 mm 8 m/s 747 mmHg 77%
    08:00 +2°C° 0 mm 8 m/s 748 mmHg 74%
    09:00 +2°C° 0 mm 8 m/s 748 mmHg 72%
    10:00 +2°C° 0 mm 8 m/s 749 mmHg 70%
    11:00 +2°C° 0.1 mm 8 m/s 749 mmHg 68%
    12:00 +2°C° 0.1 mm 8 m/s 749 mmHg 66%
    13:00 +4°C° 0.1 mm 8 m/s 749 mmHg 64%
    14:00 +2°C° 0.1 mm 8 m/s 749 mmHg 67%
    15:00 +3°C° 0.1 mm 7 m/s 749 mmHg 71%
    16:00 +2°C° 0.1 mm 7 m/s 750 mmHg 74%
    17:00 +2°C° 0.1 mm 6 m/s 750 mmHg 76%
    18:00 +2°C° 0.1 mm 6 m/s 750 mmHg 78%
    19:00 +1°C° 0.1 mm 6 m/s 750 mmHg 79%
    20:00 +2°C° 0.2 mm 6 m/s 750 mmHg 80%
    21:00 +2°C° 0.2 mm 6 m/s 750 mmHg 81%
    22:00 +2°C° 0.2 mm 6 m/s 750 mmHg 82%
    23:00 +2°C° 0.3 mm 5 m/s 750 mmHg 83%

    Mâine, 11 Decembrie, Marţi

    Timp Temperatura Precipitaţii Vânt Presiune Umiditate
    00:00 +2°C° 0.3 mm 5 m/s 751 mmHg 84%
    01:00 +3°C° 0.3 mm 4 m/s 751 mmHg 85%
    02:00 +3°C° 0.3 mm 4 m/s 751 mmHg 86%
    03:00 +3°C° 0.3 mm 4 m/s 751 mmHg 86%
    04:00 +1°C° 0.3 mm 4 m/s 751 mmHg 87%
    05:00 +1°C° 0.2 mm 4 m/s 752 mmHg 87%
    06:00 +1°C° 0.2 mm 5 m/s 752 mmHg 87%
    07:00 +1°C° 0.2 mm 5 m/s 753 mmHg 87%
    08:00 +1°C° 0.2 mm 5 m/s 754 mmHg 87%
    09:00 +1°C° 0.2 mm 6 m/s 754 mmHg 87%
    10:00 +1°C° 0.2 mm 6 m/s 755 mmHg 87%
    11:00 +2°C° 0.2 mm 6 m/s 756 mmHg 85%
    12:00 +2°C° 0.2 mm 6 m/s 756 mmHg 82%
    13:00 +3°C° 0.2 mm 6 m/s 757 mmHg 80%
    14:00 +2°C° 0.1 mm 6 m/s 757 mmHg 82%
    15:00 +1°C° 0.1 mm 5 m/s 758 mmHg 85%
    16:00 +1°C° 0.1 mm 5 m/s 758 mmHg 87%
    17:00 +1°C° 0 mm 4 m/s 759 mmHg 88%
    18:00 0°C° 0 mm 4 m/s 759 mmHg 89%
    19:00 +1°C° 0 mm 3 m/s 760 mmHg 89%
    20:00 +1°C° 0.1 mm 3 m/s 760 mmHg 90%
    21:00 +1°C° 0.1 mm 3 m/s 761 mmHg 90%
    22:00 +2°C° 0.1 mm 2 m/s 761 mmHg 90%
    23:00 +2°C° 0 mm 2 m/s 761 mmHg 90%

    Poimâine, 12 Decembrie, Miercuri

    Timp Temperatura Precipitaţii Vânt Presiune Umiditate
    00:00 +2°C° 0 mm 2 m/s 762 mmHg 90%
    01:00 +2°C° 0 mm 2 m/s 762 mmHg 91%
    02:00 +2°C° 0.1 mm 2 m/s 762 mmHg 90%
    03:00 +2°C° 0.1 mm 2 m/s 763 mmHg 90%
    04:00 +2°C° 0.1 mm 2 m/s 763 mmHg 90%
    05:00 +1°C° 0.2 mm 3 m/s 763 mmHg 90%
    06:00 0°C° 0.2 mm 4 m/s 763 mmHg 90%
    07:00 0°C° 0.2 mm 5 m/s 764 mmHg 91%
    08:00 0°C° 0.2 mm 5 m/s 764 mmHg 91%
    09:00 +1°C° 0.2 mm 5 m/s 764 mmHg 91%
    10:00 +1°C° 0.2 mm 5 m/s 765 mmHg 91%
    11:00 +1°C° 0.2 mm 5 m/s 765 mmHg 89%
    12:00 +3°C° 0.2 mm 4 m/s 765 mmHg 87%
    13:00 +3°C° 0.2 mm 4 m/s 765 mmHg 85%
    14:00 +1°C° 0.2 mm 4 m/s 765 mmHg 87%
    15:00 +1°C° 0.2 mm 4 m/s 765 mmHg 89%
    16:00 0°C° 0.2 mm 4 m/s 765 mmHg 92%
    17:00 0°C° 0.1 mm 4 m/s 765 mmHg 92%
    18:00 0°C° 0.1 mm 4 m/s 765 mmHg 92%
    19:00 0°C° 0.1 mm 4 m/s 765 mmHg 93%
    20:00 0°C° 0.1 mm 4 m/s 766 mmHg 93%
    21:00 -1°C° 0.1 mm 4 m/s 766 mmHg 93%
    22:00 -1°C° 0.1 mm 4 m/s 766 mmHg 94%
    23:00 -1°C° 0.1 mm 4 m/s 766 mmHg 94%

    13 Decembrie, Joi

    Timp Temperatura Precipitaţii Vânt Presiune Umiditate
    00:00 -1°C° 0.1 mm 4 m/s 766 mmHg 94%
    01:00 -1°C° 0.1 mm 4 m/s 766 mmHg 94%
    02:00 -2°C° 0 mm 4 m/s 766 mmHg 94%
    03:00 -2°C° 0 mm 4 m/s 766 mmHg 94%
    04:00 -1°C° 0 mm 3 m/s 766 mmHg 94%
    05:00 -1°C° 0 mm 3 m/s 766 mmHg 93%
    06:00 -1°C° 0 mm 3 m/s 766 mmHg 93%
    07:00 -1°C° 0 mm 3 m/s 766 mmHg 92%
    08:00 -1°C° 0 mm 3 m/s 766 mmHg 90%
    09:00 0°C° 0 mm 3 m/s 766 mmHg 89%
    10:00 0°C° 0 mm 3 m/s 766 mmHg 87%
    11:00 0°C° 0 mm 3 m/s 766 mmHg 84%
    12:00 +1°C° 0 mm 3 m/s 765 mmHg 82%
    13:00 +1°C° 0 mm 3 m/s 765 mmHg 80%
    14:00 +1°C° 0.1 mm 3 m/s 765 mmHg 82%
    15:00 0°C° 0.1 mm 3 m/s 765 mmHg 84%
    16:00 0°C° 0.1 mm 3 m/s 765 mmHg 87%
    17:00 0°C° 0.1 mm 3 m/s 764 mmHg 87%
    18:00 0°C° 0.1 mm 3 m/s 764 mmHg 88%
    19:00 -1°C° 0.1 mm 4 m/s 764 mmHg 89%
    20:00 -1°C° 0.1 mm 3 m/s 764 mmHg 89%
    21:00 -1°C° 0.1 mm 3 m/s 764 mmHg 89%
    22:00 -1°C° 0.1 mm 3 m/s 764 mmHg 89%
    23:00 -1°C° 0 mm 3 m/s 764 mmHg 88%

    14 Decembrie, Vineri

    Timp Temperatura Precipitaţii Vânt Presiune Umiditate
    00:00 -1°C° 0 mm 3 m/s 764 mmHg 88%
    01:00 -1°C° 0 mm 3 m/s 764 mmHg 87%
    02:00 -2°C° 0 mm 3 m/s 764 mmHg 87%
    03:00 -2°C° 0 mm 3 m/s 764 mmHg 87%
    04:00 -2°C° 0 mm 3 m/s 764 mmHg 87%
    05:00 -2°C° 0 mm 3 m/s 764 mmHg 87%
    06:00 -2°C° 0 mm 3 m/s 764 mmHg 87%
    07:00 -2°C° 0 mm 3 m/s 764 mmHg 87%
    08:00 -1°C° 0 mm 3 m/s 765 mmHg 85%
    09:00 -2°C° 0 mm 4 m/s 765 mmHg 83%
    10:00 -2°C° 0 mm 4 m/s 765 mmHg 81%
    11:00 -2°C° 0 mm 4 m/s 765 mmHg 79%
    12:00 0°C° 0 mm 3 m/s 765 mmHg 77%
    13:00 0°C° 0 mm 3 m/s 765 mmHg 76%
    14:00 0°C° 0 mm 3 m/s 765 mmHg 79%
    15:00 -1°C° 0 mm 3 m/s 765 mmHg 82%
    16:00 -1°C° 0 mm 3 m/s 766 mmHg 85%
    17:00 -1°C° 0 mm 3 m/s 766 mmHg 86%
    18:00 -1°C° 0 mm 3 m/s 766 mmHg 87%
    19:00 -2°C° 0 mm 4 m/s 766 mmHg 88%
    20:00 -2°C° 0 mm 4 m/s 766 mmHg 87%
    21:00 -2°C° 0 mm 4 m/s 766 mmHg 87%
    22:00 -2°C° 0 mm 4 m/s 766 mmHg 86%
    23:00 -2°C° 0 mm 4 m/s 766 mmHg 86%

    15 Decembrie, Sâmbătă

    Timp Temperatura Precipitaţii Vânt Presiune Umiditate
    00:00 -3°C° 0 mm 4 m/s 766 mmHg 86%
    01:00 -3°C° 0 mm 4 m/s 766 mmHg 86%
    02:00 -3°C° 0 mm 4 m/s 766 mmHg 86%
    03:00 -3°C° 0 mm 4 m/s 766 mmHg 86%
    04:00 -3°C° 0 mm 4 m/s 766 mmHg 86%
    05:00 -3°C° 0 mm 4 m/s 767 mmHg 86%
    06:00 -3°C° 0 mm 4 m/s 767 mmHg 86%
    07:00 -3°C° 0 mm 4 m/s 767 mmHg 87%
    08:00 -3°C° 0 mm 4 m/s 767 mmHg 85%
    09:00 -3°C° 0 mm 4 m/s 768 mmHg 84%
    10:00 -2°C° 0 mm 4 m/s 768 mmHg 83%
    11:00 -2°C° 0 mm 4 m/s 768 mmHg 81%
    12:00 -2°C° 0 mm 4 m/s 768 mmHg 78%
    13:00 -1°C° 0 mm 4 m/s 768 mmHg 76%
    14:00 -2°C° 0 mm 4 m/s 768 mmHg 77%
    15:00 -2°C° 0 mm 4 m/s 768 mmHg 79%
    16:00 -3°C° 0 mm 4 m/s 768 mmHg 80%
    17:00 -3°C° 0 mm 4 m/s 768 mmHg 80%
    18:00 -3°C° 0 mm 4 m/s 768 mmHg 79%
    19:00 -3°C° 0 mm 4 m/s 768 mmHg 79%
    20:00 -3°C° 0 mm 4 m/s 768 mmHg 80%
    21:00 -3°C° 0 mm 4 m/s 768 mmHg 82%
    22:00 -4°C° 0 mm 4 m/s 768 mmHg 83%
    23:00 -4°C° 0 mm 4 m/s 767 mmHg 84%
    Arată mai mult